Location: Bennemühlen
(52.5740°N, 9.7135°E)
Time: 03:20:44
(UTC+00:00)

Vanguard 2 Rocket - Pass Details

Date: 22 February 2026
Orbit: 553 x 3286 km, 32.9° (Epoch: 8 March)

Event Time Altitude Azimuth Distance (km) Brightness Sun altitude
Rises 09:11:30 0° 206° (SSW) 7,039 11.8 20.2°
Reaches altitude 10° 09:17:35 10° 194° (SSW) 6,181 11.8 20.8°
Maximum altitude 09:31:21 24° 150° (SSE) 4,986 14.2 22.0°
Drops below altitude 10° 09:43:38 10° 106° (ESE) 5,519 11.7 22.9°
Sets 09:48:32 0° 94° (E) 6,166 11.6 23.3°
